Moore, Oklahoma, United States
Lat: 35.34N, Lon: 97.49W
Wx Zone: OKZ029
Local Info
Past Weather Observations for Friday, July 22, 2016

NOTE: This archive is for the closest National Weather Service station to Moore. Information may differ from the station used for current weather conditions.

Click here for Long-term Archive

Time Weather Temperature Dewpoint Humidity Pressure Winds Precip Visibility
23:52
Clear
77°F / 25°C 70°F / 21°C 79% 29.98 in
(1015 mb)
SSE 6.9 mph
(SSE 11 kph)
- 10SM
22:52
Clear
79°F / 26°C 70°F / 21°C 74% 30.01 in
(1016 mb)
SSE 6.9 mph
(SSE 11 kph)
- 10SM
21:52
Clear
81°F / 27°C 70°F / 21°C 70% 30.01 in
(1016 mb)
S 5.8 mph
(S 9 kph)
- 10SM
20:52
Partly Cloudy
82°F / 28°C 68°F / 20°C 62% 29.98 in
(1015 mb)
SSE 9.2 mph
(SSE 15 kph)
- 10SM
19:52
Partly Cloudy
84°F / 29°C 66°F / 19°C 55% 29.98 in
(1015 mb)
SSE 6.9 mph
(SSE 11 kph)
- 10SM
18:52
Partly Cloudy
93°F / 34°C 64°F / 18°C 39% 29.98 in
(1015 mb)
S 8.1 mph
(S 13 kph)
- 10SM
17:52
Partly Cloudy
97°F / 36°C 64°F / 18°C 34% 29.98 in
(1015 mb)
SSE 12.7 mph
(SSE 20 kph)
- 10SM
16:52
Partly Cloudy
99°F / 37°C 63°F / 17°C 31% 29.98 in
(1015 mb)
S 12.7 mph
(S 20 kph)
- 10SM
15:52
Partly Cloudy
99°F / 37°C 63°F / 17°C 31% 30.01 in
(1016 mb)
SSE 12.7 mph
(SSE 20 kph)
- 10SM
14:52
Clear
99°F / 37°C 63°F / 17°C 31% 30.04 in
(1017 mb)
SW 13.8 mph
(SW 22 kph)
- 10SM
13:52
Clear
99°F / 37°C 63°F / 17°C 31% 30.04 in
(1017 mb)
SSE 17.3 mph
(SSE 28 kph)
- 10SM
12:52
Clear
99°F / 37°C 66°F / 19°C 35% 30.06 in
(1018 mb)
SSE 10.4 mph
(SSE 17 kph)
- 10SM
11:52
Clear
97°F / 36°C 64°F / 18°C 34% 30.09 in
(1019 mb)
S 10.4 mph
(S 17 kph)
- 10SM
10:52
Clear
93°F / 34°C 66°F / 19°C 41% 30.09 in
(1019 mb)
SW 11.5 mph
(SW 19 kph)
- 10SM
09:52
Clear
91°F / 33°C 64°F / 18°C 41% 30.09 in
(1019 mb)
S 13.8 mph
(S 22 kph)
- 10SM
08:52
Clear
88°F / 31°C 66°F / 19°C 49% 30.06 in
(1018 mb)
SW 12.7 mph
(SW 20 kph)
- 10SM
07:52
Clear
82°F / 28°C 66°F / 19°C 58% 30.06 in
(1018 mb)
SSE 11.5 mph
(SSE 19 kph)
- 10SM
06:52
Clear
77°F / 25°C 70°F / 21°C 79% 30.06 in
(1018 mb)
S 5.8 mph
(S 9 kph)
- 10SM
05:52
Clear
72°F / 22°C 68°F / 20°C 88% 30.06 in
(1018 mb)
S 5.8 mph
(S 9 kph)
- 10SM
03:52
Clear
73°F / 23°C 68°F / 20°C 83% 30.06 in
(1018 mb)
S 5.8 mph
(S 9 kph)
- 10SM
02:52
Clear
73°F / 23°C 68°F / 20°C 83% 30.06 in
(1018 mb)
S 5.8 mph
(S 9 kph)
- 10SM
01:52
Clear
75°F / 24°C 68°F / 20°C 78% 30.06 in
(1018 mb)
SSE 6.9 mph
(SSE 11 kph)
- 10SM
00:52
Clear
77°F / 25°C 70°F / 21°C 79% 30.06 in
(1018 mb)
S 6.9 mph
(S 11 kph)
- 10SM
Time Weather Temperature Dewpoint Humidity Pressure Winds Precip Visibility


Weather for websites

WeatherForYou.com, LLC is not responsible for any damages or problems caused by this service. Current weather conditions are obtained from the closest station including government and personal stations which may have varying degrees of accuracy. Weather forecasts are derived from the NOAA NDFD. Like all things, this site belongs to Jesus Christ... He just trusts us to maintain it. If you have any questions or comments email webmaster@weatherforyou.com

Copyright © 2016, WeatherForYou.com LLC. All rights reserved.